Location: Sevilla
(37.3933°N, 5.9839°W)
Time: 12:06:15
(UTC+02:00)

S-56A Canister/Altair - Pass Details

Date: 30 June 2024
Orbit: 638 x 2488 km, 38.9° (Epoch: 14 July)

Event Time Altitude Azimuth Distance (km) Brightness Sun altitude
Rises 01:33:13 0° 286° (WNW) 4,432 11.8 -28.1°
Reaches altitude 10° 01:35:48 10° 284° (WNW) 3,671 11.3 -28.2°
Maximum altitude 01:45:43 73° 203° (SSW) 2,050 9.3 -28.7°
Enters shadow 01:54:06 28° 126° (SE) 3,556 10.5 -28.9°
